Regional Weather Roundup
Issued by NWS Kansas City/Pleasant Hill, MO

Home | Current Version | Previous Version | Graphics & Text | Print | Product List | Glossary Off
Versions: 1 2 3 4 5 6 7 8 9 10 11 12 13 14 15 16 17 18 19 20 21 22 23 24 25 26 27 28 29 30 31 32 33 34 35 36 37 38 39 40 41 42 43 44 45 46 47 48 49 50

000
ASUS43 KEAX 190710
RWREAX

WEATHER ROUNDUP FOR EASTERN KANSAS AND NORTHWEST MISSOURI
NATIONAL WEATHER SERVICE KANSAS CITY/PLEASANT HILL MO
100 AM CST FRI JAN 19 2018

KSZ040-057-103>105-MOZ028-029-037-043-190800-
...KANSAS CITY METROPOLITAN AREA...

CITY           SKY/WX    TMP DP  RH WIND       PRES   REMARKS
K.C. INTL      CLOUDY    36  19  50 SW18G26   29.99F WCI  26
K.C. DOWNTOWN  CLOUDY    38  18  44 SW12      30.01F WCI  30
LEES SUMMIT    CLOUDY    35  18  49 SW18      30.01F WCI  24
OLATHE - IXD   CLOUDY    34  19  54 S13       30.03F WCI  25
OLATHE - OJC   CLOUDY    32  19  58 S10       30.02F WCI  24
LAWRENCE       CLOUDY    36  21  54 S12       30.02F WCI  28

$$

MOZ001>008-011>017-020>025-030>033-038>040-044>046-053-054-190800-
...NORTHERN AND CENTRAL MISSOURI...

CITY           SKY/WX    TMP DP  RH WIND       PRES   REMARKS
ST. JOSEPH     CLOUDY    36  24  62 SW13      29.97F WCI  27
MOSBY            N/A     36  19  51 S5        30.01F WCI  32
WARRENSBURG    PTCLDY    32  19  59 S12       30.05F WCI  23
WHITEMAN AFB   CLEAR     33  16  51 SW16      30.00F WCI  22
CLINTON        CLOUDY    34  16  47 SW16      30.09F WCI  23
SEDALIA        CLOUDY    35  18  49 SW18G25   30.06F WCI  24
WARSAW         NOT AVBL
CHILLICOTHE      N/A     31  20  63 S8        30.00F WCI  23
KIRKSVILLE     CLOUDY    32  24  72 SW14      29.99F WCI  22

$$

MOZ041-047>049-056>058-063>065-088>090-097-190800-
...EASTERN AND SOUTHERN MISSOURI...

CITY           SKY/WX    TMP DP  RH WIND       PRES   REMARKS
ST. LOUIS INTL CLOUDY    33  13  43 SW8       30.12F WCI  26
SPIRIT OF STL  CLOUDY    35  12  38 SW12G20   30.11F WCI  27
COLUMBIA       CLOUDY    31  17  56 S13       30.07F WCI  21
JEFFERSON CITY CLOUDY    33  16  49 S3        30.11F
ROLLA          CLOUDY    30  12  47 S12       30.11F WCI  20
OSAGE BEACH    CLOUDY    34  13  41 SW8       30.12F WCI  27
SPRINGFIELD    CLOUDY    28  12  51 S8        30.14F WCI  20
BRANSON        CLOUDY    32   9  37 SW6       30.18S WCI  26
JOPLIN         CLOUDY    33  15  47 S17G26    30.14F WCI  22
WEST PLAINS    CLOUDY    28  11  48 SW6       30.18F WCI  22

$$

IAZ060-094-KSZ022-034>040-054-083-096-NEZ052-066-093-190800-
...KANSAS...SOUTHEAST NEBRASKA AND IOWA...

CITY           SKY/WX    TMP DP  RH WIND       PRES   REMARKS
TOPEKA         CLOUDY    37  22  54 S7        29.99F WCI  32
MANHATTAN      CLOUDY    38  23  55 SW10      29.97F WCI  31
EMPORIA        CLOUDY    33  18  53 S14       30.01F WCI  23
CHANUTE        CLOUDY    33  16  49 S15       30.09F WCI  23
WICHITA        CLOUDY    34  17  50 S17       30.03F WCI  23
OMAHA          CLOUDY    27  22  81 SE10      29.86F WCI  17
LINCOLN        CLOUDY    31  23  72 S8        29.86F WCI  23
FALLS CITY     CLOUDY    35  24  64 S12       29.92F WCI  27
LAMONI         CLOUDY    30  21  69 S14       29.91F WCI  19
DES MOINES     CLOUDY    29  21  72 S6        29.88F WCI  23

$$




USA.gov is the U.S. government's official web portal to all federal, state and local government web resources and services.